Theta_e
335 334 332 331 328 328 321 319 303 308 305 301 298 300 299 307 308 304 305 307 305 312 314 315 319 316 315 311 311 314 316 312 316 310 312 326 340 340 342 342 342 342 345 346 345 346 347 347 347 346 344 343 343 343 342 341 340 340 339 340 345 347 346 347 346 347 346 347 346 345 345 344 344 344 344 343 342 342 344 342 341 340 339 339 339 339 339 338 338 338 339 339 340 339 340 342 343
332 329 329 329 327 320 313 316 307 302 303 298 300 302 301 306 305 303 303 307 309 310 314 317 319 318 316 315 315 314 316 321 325 324 329 335 340 340 342 342 341 341 344 348 346 346 347 347 347 346 345 343 343 342 341 340 339 339 339 339 340 345 346 347 347 346 347 347 346 345 344 345 343 342 341 341 340 343 343 342 342 342 339 338 338 339 341 340 340 339 339 338 338 338 338 339 341
327 328 324 325 324 319 315 314 302 301 298 296 298 302 305 302 303 306 306 310 313 314 315 318 320 317 313 313 312 312 310 326 328 327 328 338 332 335 340 342 342 343 346 348 346 346 347 346 345 346 345 343 343 343 342 341 340 340 340 340 341 343 344 345 347 346 346 346 345 344 344 343 342 342 340 339 340 340 340 343 343 343 342 339 339 339 340 338 338 340 339 340 339 339 338 338 339
329 329 328 321 314 315 309 308 304 301 299 299 297 303 303 303 304 308 311 312 313 316 316 314 314 318 312 309 311 315 317 322 329 328 327 331 332 337 341 342 344 344 348 348 347 347 346 345 344 346 345 344 344 343 342 341 340 340 341 341 344 345 344 343 346 347 346 346 345 343 342 341 341 340 340 340 340 339 341 341 341 340 341 341 340 339 338 340 339 339 339 339 339 338 339 339 338
329 326 323 320 315 309 310 308 305 303 298 299 298 302 304 306 307 309 311 312 312 314 315 314 314 318 319 314 316 315 320 326 330 331 329 336 339 338 341 342 343 343 345 346 346 347 345 343 344 346 344 344 344 343 342 342 341 340 340 340 343 343 342 342 344 347 346 345 343 342 342 341 341 340 338 338 338 339 340 341 339 338 340 340 340 340 338 340 340 340 340 339 340 339 339 338 339
322 322 326 318 310 315 309 302 300 300 302 303 300 302 305 307 307 310 310 311 312 313 314 314 313 313 313 317 319 321 326 317 329 331 335 335 338 340 341 342 340 342 344 345 347 347 346 341 344 345 345 344 344 344 343 342 342 341 340 340 340 343 343 342 342 346 346 344 343 341 341 340 340 339 339 337 339 340 340 340 340 340 340 340 340 340 339 337 337 339 339 339 339 339 338 338 339
323 319 316 317 315 315 305 302 301 302 302 304 303 303 306 307 309 310 309 309 311 311 312 314 315 311 310 317 319 328 332 331 330 332 338 339 340 340 341 340 340 341 344 346 348 347 347 341 346 346 346 345 344 344 343 341 341 341 341 340 341 343 344 343 343 343 345 344 342 341 340 340 339 338 337 337 337 337 337 339 341 341 341 341 341 341 341 341 340 341 339 339 340 339 339 339 338
325 316 315 308 307 306 302 303 303 304 302 305 304 305 306 308 310 309 308 307 306 307 311 312 314 312 311 317 315 326 330 333 335 338 339 339 340 340 341 339 339 340 343 346 347 346 344 341 346 346 345 344 344 344 343 342 341 340 340 340 342 345 345 345 345 345 345 344 340 339 339 339 338 337 336 337 337 337 339 341 343 342 342 341 340 339 338 338 338 339 339 340 340 339 339 339 339
320 315 319 313 304 307 303 301 303 304 303 304 304 306 310 309 310 308 307 309 309 310 310 312 313 307 310 310 321 327 329 333 335 337 337 339 339 340 340 339 338 340 342 344 348 346 347 341 345 346 345 345 345 343 345 343 341 340 340 340 342 344 343 343 344 344 344 343 340 338 338 338 337 337 337 338 338 338 339 340 341 341 340 339 339 338 338 338 338 338 339 339 339 338 338 338 338
314 314 306 307 309 301 301 302 300 303 303 305 305 305 306 309 309 309 308 306 308 308 310 313 312 307 308 310 316 325 329 334 335 335 337 338 338 339 339 339 340 341 343 344 346 346 346 345 340 343 344 346 345 344 344 343 342 340 340 340 340 340 341 342 343 343 342 342 341 338 337 337 337 337 338 337 336 336 338 338 338 340 339 339 338 338 337 338 339 339 338 338 338 338 338 338 338
308 312 317 306 302 300 300 300 302 302 303 305 305 307 308 309 309 309 308 307 308 307 311 312 307 307 308 311 321 332 333 334 332 332 336 336 339 338 338 340 341 343 342 345 345 346 347 347 341 339 343 343 345 345 343 343 343 341 340 340 340 340 342 342 341 341 341 340 341 338 337 337 336 336 336 336 336 336 336 337 337 338 338 338 338 339 339 338 338 338 338 338 337 337 337 337 337
308 307 310 302 301 301 301 301 301 303 304 304 304 306 309 309 310 307 307 305 306 307 308 310 308 310 307 309 318 329 333 332 333 335 336 338 337 338 338 339 341 342 344 345 346 345 346 348 347 343 338 339 342 343 344 344 343 342 341 341 340 340 340 342 341 340 340 339 340 339 337 336 336 335 338 339 339 338 336 337 337 337 339 339 339 338 337 337 337 337 337 336 336 336 337 337 336
310 311 305 303 302 303 302 301 301 302 302 302 304 307 309 308 307 308 306 306 306 305 307 310 313 310 306 307 322 329 329 332 334 336 337 336 337 338 339 338 340 342 343 345 345 344 347 346 346 346 342 333 335 337 339 340 343 344 343 342 341 340 342 341 340 339 339 339 341 339 339 339 339 337 340 340 339 338 337 337 339 337 338 336 336 336 337 337 337 336 336 336 336 336 336 337 336
311 311 309 302 305 303 301 301 302 299 300 305 307 307 308 307 308 309 308 305 305 305 310 313 311 310 309 311 316 320 329 334 335 337 336 337 337 337 338 338 341 342 344 344 343 344 345 346 346 347 346 345 346 339 332 338 341 343 342 342 342 341 342 344 343 343 343 342 341 340 340 340 339 339 339 340 338 337 337 337 339 336 337 338 338 337 337 336 335 335 335 336 336 336 336 336 335
311 313 308 307 303 302 303 300 300 300 301 305 306 306 307 308 308 308 308 305 306 310 311 314 316 309 306 305 310 317 330 334 335 337 337 337 337 336 338 338 340 342 342 342 342 342 343 344 344 347 344 344 344 343 345 344 334 338 340 340 340 341 340 339 340 339 340 341 340 337 335 333 332 332 333 335 335 335 333 331 335 339 339 338 337 336 336 335 335 335 336 336 335 335 335 334 334
316 310 308 303 301 300 302 301 303 301 301 306 306 308 306 307 308 306 307 307 307 312 310 308 314 311 309 317 323 326 332 334 335 337 336 336 336 336 337 337 338 340 341 342 341 342 343 344 345 345 345 344 344 343 343 345 334 332 336 337 337 338 337 336 335 335 334 334 333 332 330 334 331 333 326 332 330 334 331 331 332 337 338 336 336 335 335 334 335 335 335 335 335 334 333 332 332
317 316 303 303 300 301 302 301 301 298 304 306 306 306 304 304 307 306 306 308 306 307 308 312 310 314 313 320 330 334 334 334 334 336 335 333 333 333 334 335 335 337 339 340 341 341 343 343 344 344 344 344 345 344 344 344 343 331 331 329 332 334 334 332 330 326 325 324 327 325 328 336 335 334 336 333 327 335 324 325 331 336 338 336 335 334 334 334 335 334 334 334 333 330 328 326 327
314 304 302 301 303 301 305 302 303 304 303 304 305 306 306 303 305 306 307 306 306 307 306 311 311 313 320 320 327 334 333 333 334 333 332 331 331 330 331 332 333 333 336 338 340 341 341 342 343 343 343 344 344 344 344 344 344 338 341 341 341 336 329 327 333 338 338 339 327 334 337 335 334 334 334 334 333 333 332 324 329 335 336 335 335 334 334 334 334 334 334 332 331 329 325 332 328
307 304 303 300 304 304 306 306 305 304 304 305 306 307 307 306 306 306 304 304 304 304 305 307 307 312 318 321 327 331 331 332 332 332 330 330 330 328 330 331 331 332 334 336 338 339 341 341 342 342 343 343 344 344 344 344 343 340 342 341 340 332 337 338 337 337 337 338 338 337 334 333 334 334 334 335 334 324 331 324 328 330 332 332 335 335 333 334 333 333 331 330 329 328 331 333 331
309 306 301 303 307 305 306 306 304 305 306 305 306 306 307 306 306 307 304 304 304 303 303 305 305 308 314 319 325 329 330 330 332 331 330 330 331 330 329 330 331 332 333 335 337 339 340 340 341 342 342 343 343 343 343 342 342 340 340 340 339 338 339 337 338 337 337 338 337 336 334 335 333 334 329 330 332 334 331 322 323 326 328 328 329 332 330 330 330 328 326 325 326 328 331 329 330
307 305 302 305 306 304 304 305 304 304 305 306 305 306 305 305 307 306 304 303 303 304 306 306 305 306 312 319 323 327 328 329 330 331 330 330 331 332 331 331 331 333 334 336 337 337 339 340 340 341 342 343 342 341 342 341 341 339 339 339 338 338 338 336 336 336 337 338 337 334 335 335 334 334 330 330 331 332 332 331 332 331 332 333 326 333 332 333 331 331 328 325 330 330 330 330 329
306 303 305 306 306 304 303 304 302 303 303 306 305 303 304 307 305 305 305 301 302 304 307 308 308 309 311 317 323 328 328 328 329 330 330 330 330 331 332 334 335 335 335 333 334 336 338 339 340 341 341 342 342 342 341 341 341 340 339 338 338 337 338 336 336 336 336 337 336 335 336 335 333 333 331 329 331 333 331 331 331 331 331 331 331 332 329 329 329 329 329 329 329 329 329 329 329
301 304 304 305 305 304 303 303 301 302 304 304 303 306 306 304 304 306 306 304 305 307 307 307 308 311 318 319 324 326 327 328 329 329 330 330 331 332 332 334 333 333 334 334 334 335 337 339 340 341 340 341 342 342 341 342 340 340 339 338 338 336 337 336 335 335 335 336 336 335 334 332 331 331 331 331 330 332 331 330 330 331 331 330 329 329 329 329 329 328 328 329 329 329 328 328 328
305 302 304 303 304 303 303 302 300 301 303 304 306 305 304 304 301 304 303 307 307 306 307 306 306 312 321 320 322 326 326 328 329 330 332 331 332 332 334 334 335 335 335 335 335 336 337 337 339 340 340 340 341 341 341 340 341 340 339 335 338 334 335 335 335 335 336 335 336 335 331 332 331 330 331 331 330 330 330 331 330 330 331 330 330 330 329 328 328 328 328 328 328 328 327 328 327
303 303 304 302 304 302 302 302 301 301 302 303 304 303 303 304 303 302 304 306 308 306 308 309 310 313 316 318 320 323 325 327 328 330 332 333 334 335 336 336 336 336 334 335 336 336 337 337 338 338 339 339 340 341 339 340 340 340 340 338 337 334 336 335 335 336 335 335 335 335 333 332 332 331 331 331 331 330 331 331 330 329 329 330 330 328 329 328 327 327 327 327 327 327 326 326 326
304 304 304 303 303 303 302 302 302 302 303 303 302 303 303 302 302 302 305 306 307 307 307 310 312 312 312 316 318 320 323 325 328 329 330 333 334 333 334 334 335 333 335 335 335 336 337 337 338 338 339 339 340 340 340 340 340 339 339 339 338 337 336 336 336 335 335 335 335 334 334 333 332 331 331 331 331 330 330 331 330 329 329 329 328 327 327 327 326 325 326 326 326 326 325 325 325
306 304 304 303 303 302 302 303 302 303 303 302 302 303 302 302 302 301 306 306 305 306 306 312 310 310 312 314 318 320 322 324 327 329 331 332 332 332 332 333 333 334 335 335 335 336 336 337 338 339 339 340 340 340 340 339 340 339 339 339 339 338 337 336 336 335 335 335 335 335 334 334 333 332 332 331 330 330 330 331 329 329 328 328 327 327 327 326 325 325 326 325 325 325 324 325 324
305 304 303 301 301 303 302 303 302 303 301 302 303 302 302 302 302 302 304 304 305 305 306 309 308 309 311 313 316 320 321 324 327 329 328 329 329 331 332 332 332 333 334 335 336 337 336 336 337 338 339 340 340 340 339 339 339 339 340 340 339 339 338 337 336 335 333 334 335 336 335 334 332 332 332 332 331 330 330 329 329 328 327 327 327 326 326 326 325 325 326 326 326 325 325 324 324
304 304 300 300 301 301 302 302 302 303 302 303 304 301 300 300 299 305 303 304 305 305 306 308 309 308 312 315 317 319 321 323 327 327 328 329 331 332 331 333 332 332 334 336 336 336 335 335 335 337 338 339 339 339 339 339 339 340 339 339 339 340 339 337 336 335 335 335 335 335 334 334 334 332 332 332 331 330 330 329 329 329 328 327 327 327 327 326 324 324 324 324 324 324 323 323 324
305 303 301 298 299 299 302 302 303 302 302 302 302 294 298 301 303 305 303 304 303 303 305 307 308 309 311 315 317 319 321 323 326 327 328 329 329 330 329 331 333 333 333 335 336 336 336 337 336 337 338 337 338 338 338 339 339 339 340 340 339 339 339 338 336 336 335 335 335 335 334 333 333 333 333 332 331 329 330 330 329 328 328 328 327 326 325 324 322 322 322 322 319 321 321 321 321
298 301 302 298 296 296 301 302 302 300 301 301 302 295 298 302 304 303 303 303 303 303 304 305 307 309 310 312 313 316 319 323 324 327 328 329 329 330 330 331 333 333 333 335 335 336 336 336 336 335 337 337 338 338 338 339 339 339 339 339 339 339 339 339 338 337 336 335 334 333 333 333 333 333 333 331 330 330 329 329 329 328 329 329 325 324 324 323 323 322 321 320 320 320 320 321 321
300 295 293 298 296 298 299 302 301 299 300 303 301 295 297 301 300 302 303 303 304 303 304 305 306 306 308 309 311 312 315 321 323 324 327 329 330 331 332 331 333 333 334 335 336 336 335 336 336 336 336 335 337 336 337 338 338 339 339 333 338 339 338 338 338 338 337 337 334 333 333 333 333 333 332 331 330 329 328 328 329 330 330 328 326 324 324 323 322 322 322 321 318 318 318 318 320
299 296 296 295 297 297 297 299 302 301 301 301 300 296 299 300 301 302 303 303 302 302 303 305 305 305 306 306 308 309 311 315 320 322 323 327 329 332 333 332 333 335 335 335 335 336 335 335 335 335 335 335 335 336 338 337 337 338 338 339 338 338 338 337 338 338 338 336 335 333 334 333 333 333 333 332 331 330 329 329 329 330 330 329 326 324 323 323 322 322 321 321 319 317 318 318 318
293 297 295 298 295 296 295 298 301 303 301 298 300 297 298 301 302 302 302 303 303 302 303 304 305 305 306 307 307 307 308 310 313 318 321 324 328 330 331 329 333 334 335 335 336 335 335 336 335 335 336 336 336 335 334 336 336 336 336 337 337 337 337 337 337 337 337 337 337 336 335 334 333 334 335 334 333 332 332 331 331 331 330 329 327 325 323 323 322 322 320 321 320 318 317 318 317
291 292 294 295 297 297 296 296 299 299 299 299 299 297 298 301 303 302 303 303 303 303 303 304 304 305 306 306 307 307 308 308 309 312 316 320 324 327 328 329 330 332 333 334 335 335 336 336 336 335 335 335 335 335 335 336 336 335 334 336 337 337 337 338 337 336 336 336 336 336 336 335 334 334 335 335 334 332 331 331 331 332 331 329 326 324 323 322 322 321 320 320 320 319 318 318 318
295 295 295 296 293 294 295 297 298 300 298 296 298 297 298 300 301 303 304 303 303 303 304 304 304 305 305 306 307 307 308 308 311 312 314 316 321 324 326 327 328 330 330 331 332 334 334 335 335 336 334 334 335 335 334 332 333 334 333 333 332 334 335 334 336 336 337 336 337 337 337 335 335 333 334 334 334 333 331 330 331 331 329 328 325 323 322 322 321 320 320 319 319 318 318 318 317
298 298 296 295 295 296 297 297 297 298 298 297 298 298 299 300 301 303 304 304 303 303 303 303 304 305 305 306 306 308 309 309 320 316 315 313 314 316 320 324 326 327 327 328 329 331 333 333 334 334 335 334 333 333 333 332 330 330 331 333 332 333 332 333 333 333 334 335 337 338 339 336 335 334 333 334 333 329 329 330 329 329 327 325 324 323 324 323 322 321 319 319 318 315 314 315 312
297 296 295 294 295 294 297 296 297 299 296 296 299 298 299 300 301 303 304 303 302 303 302 303 304 305 306 307 308 309 310 314 314 312 310 313 312 313 313 314 318 323 325 326 326 328 330 332 332 333 334 334 333 332 333 332 332 331 330 330 331 334 334 334 331 332 333 335 336 337 337 337 336 334 332 332 331 330 329 328 329 328 327 325 324 323 322 318 320 316 315 313 314 312 311 313 311
297 295 295 294 294 295 294 295 297 298 296 295 298 296 297 299 301 303 303 303 304 305 305 304 304 305 305 307 309 310 311 312 312 311 312 310 312 312 311 311 312 316 320 324 326 327 328 329 330 331 332 333 333 332 333 332 333 333 332 331 331 330 333 336 336 335 335 335 337 338 337 337 336 335 333 331 331 331 331 331 329 329 328 326 323 322 321 320 317 315 313 312 311 311 311 313 310
296 295 294 291 295 292 290 294 296 296 296 296 297 295 297 300 301 302 304 303 304 306 306 306 308 307 307 307 308 309 309 310 310 310 309 309 312 311 311 311 311 312 313 319 322 324 326 327 328 329 331 332 332 332 332 333 333 334 333 333 332 331 330 332 335 338 337 337 334 335 336 335 335 336 335 333 331 332 332 331 330 329 327 326 324 322 322 320 318 316 314 313 313 311 309 310 311
298 299 296 294 294 294 296 293 295 295 296 295 295 295 295 297 297 299 302 303 303 304 303 304 305 306 307 309 308 308 307 308 308 309 310 309 308 308 309 310 311 311 311 313 318 321 323 325 327 328 329 330 331 331 331 332 332 331 331 331 332 331 332 331 331 331 332 333 332 332 333 334 333 333 335 335 333 333 332 331 330 328 326 325 323 323 323 322 321 319 316 314 313 312 311 311 310
295 299 299 297 297 295 295 295 293 293 293 296 295 289 290 296 298 298 301 299 300 301 301 301 303 304 304 302 303 305 307 306 306 307 309 310 309 309 309 310 310 310 310 312 313 317 319 322 325 326 327 328 329 330 331 330 329 328 327 325 324 325 323 323 324 325 327 328 328 330 331 332 333 334 335 335 334 330 330 330 329 328 327 326 324 323 323 323 321 319 317 316 314 315 314 312 310
293 294 300 297 296 297 296 295 295 290 288 294 295 288 287 296 296 298 299 298 298 302 300 301 303 303 303 303 305 307 308 309 309 308 307 307 307 307 308 309 309 309 309 312 312 312 314 317 320 323 325 325 327 328 329 328 327 326 326 325 325 323 322 324 326 327 327 328 328 329 332 333 335 334 334 335 335 332 330 331 331 330 329 326 322 321 321 321 321 321 320 317 315 314 313 311 312
292 297 299 299 298 297 296 297 296 294 294 294 293 295 289 289 295 299 298 297 298 299 301 301 302 303 304 305 306 306 308 308 309 309 308 307 306 306 306 308 310 311 311 311 311 311 312 314 317 320 322 323 325 326 326 326 325 324 325 325 324 323 323 324 326 327 327 327 327 327 328 328 330 331 332 332 332 333 332 331 330 329 327 327 325 322 322 322 322 322 319 317 316 315 313 311 312
295 294 300 298 298 298 298 297 295 295 293 290 292 298 288 288 295 296 297 295 297 298 299 301 303 304 304 305 305 306 306 307 305 306 308 308 307 307 310 311 312 311 311 311 310 310 312 313 317 318 319 321 324 324 325 325 324 324 324 324 322 323 324 325 326 327 326 326 325 326 326 327 327 329 330 330 331 331 331 331 331 331 330 328 326 324 323 324 323 321 319 317 315 314 314 313 312
294 297 300 300 301 300 299 295 295 293 290 286 291 294 287 288 295 295 297 296 296 298 299 301 303 303 304 304 305 306 306 307 307 307 308 309 310 310 310 311 310 312 311 313 313 312 313 314 315 316 318 320 323 323 323 323 324 324 324 323 322 323 323 323 324 323 324 324 323 323 324 325 325 326 327 329 329 329 329 330 330 330 330 328 323 325 324 323 322 321 320 318 317 315 314 313 312
298 300 298 297 297 297 295 296 294 291 285 287 292 292 291 285 293 294 295 296 297 298 300 301 302 302 302 303 304 306 306 307 308 308 308 308 308 309 310 310 310 311 313 312 312 313 314 315 317 317 319 321 321 322 323 323 323 323 323 323 322 322 323 322 321 321 320 320 320 320 321 322 323 324 325 325 326 327 327 328 328 328 328 328 326 326 325 325 324 322 321 320 317 316 314 314 312
301 298 295 295 292 294 292 290 293 285 284 287 287 290 292 283 289 296 297 295 298 299 299 300 300 301 302 304 304 305 305 306 308 308 308 308 308 309 310 310 311 312 313 314 315 315 315 316 317 318 318 319 320 321 321 321 322 322 323 322 322 322 322 321 320 320 320 319 319 319 320 320 320 321 321 322 322 324 324 324 325 325 325 324 324 324 323 323 322 322 321 319 318 318 317 314 313
298 296 294 288 286 286 283 287 283 283 283 286 288 289 287 287 292 296 297 296 297 299 301 301 301 301 302 303 304 305 306 307 308 309 309 310 310 310 310 310 312 312 313 314 315 317 318 319 318 315 315 316 318 319 319 320 320 321 321 321 322 322 322 321 320 319 320 319 319 319 318 318 318 318 318 318 319 321 321 322 322 322 322 323 324 323 323 323 322 321 321 320 319 318 318 316 313
295 293 291 286 283 282 280 283 285 286 285 286 287 291 284 291 294 298 297 299 299 300 301 301 300 300 301 303 304 305 306 307 308 309 310 310 310 310 310 311 311 311 312 313 314 316 318 319 318 317 316 317 317 317 318 318 319 320 320 321 321 320 320 320 319 319 320 320 320 319 319 318 318 318 318 318 319 319 319 319 319 319 320 320 321 321 321 322 322 321 320 319 318 319 318 316 315
294 302 294 289 288 284 279 283 281 282 285 284 287 285 285 286 290 298 297 298 299 298 298 300 300 300 301 302 303 305 306 307 309 309 308 308 309 309 310 310 310 310 311 312 313 314 315 315 317 316 315 317 318 319 320 319 319 320 320 320 319 319 319 319 319 320 319 318 318 317 317 317 316 317 317 318 318 318 318 318 318 317 317 317 318 318 319 320 320 320 319 318 318 318 317 316 315
297 297 298 291 289 294 285 286 286 285 284 283 283 285 291 292 298 297 298 298 297 297 298 297 299 300 301 302 304 305 306 306 307 307 307 308 308 309 309 309 309 309 310 311 312 313 313 313 313 313 313 314 315 316 317 318 318 317 317 317 317 317 316 316 316 315 315 315 314 314 314 314 315 315 316 316 316 316 315 316 316 316 316 316 316 316 316 316 317 316 316 316 316 318 316 315 315
293 293 288 292 296 292 285 283 285 282 284 284 289 287 291 296 297 298 298 296 297 296 297 296 299 300 302 304 305 305 306 306 307 307 306 306 306 306 307 307 307 307 307 307 308 309 310 310 310 309 310 310 311 312 312 312 312 312 312 313 313 313 313 313 313 314 313 313 313 313 312 313 313 313 313 313 313 313 313 313 313 314 314 315 315 315 314 314 315 315 314 314 314 315 315 314 314
293 286 292 296 297 297 289 283 284 283 281 283 288 285 287 289 286 297 295 295 295 295 296 297 299 301 303 305 305 305 305 306 306 306 305 305 305 304 304 304 305 305 305 305 305 307 308 308 308 308 308 308 309 309 310 311 311 311 311 311 311 311 311 311 311 311 311 311 311 311 312 311 312 312 311 312 311 311 311 309 311 311 312 312 313 313 313 313 312 312 312 312 312 312 312 312 312
294 292 301 291 285 285 288 286 280 280 280 282 285 287 287 290 291 293 294 294 295 296 297 297 298 301 303 304 304 305 304 304 304 304 304 305 304 304 304 303 303 304 304 305 305 306 306 306 306 306 305 306 307 308 308 308 309 310 310 309 309 309 309 309 309 309 310 310 310 310 310 310 310 310 310 310 310 310 310 310 310 309 310 310 311 311 311 311 310 309 310 310 310 310 309 309 310
296 296 293 296 291 289 286 286 287 286 282 282 283 284 284 292 293 295 295 296 297 297 296 297 298 301 303 303 303 303 303 304 304 304 304 304 303 303 303 303 303 304 304 304 304 305 305 305 305 305 305 306 306 306 307 306 307 308 308 308 308 308 308 308 308 308 308 308 308 307 307 308 307 307 308 308 308 308 308 307 308 308 308 308 308 309 309 309 309 308 307 307 308 309 308 307 308
289 290 289 292 293 294 291 293 287 285 283 283 283 282 286 294 296 296 296 297 299 298 297 298 299 303 304 303 303 303 304 304 304 304 303 303 302 302 302 302 302 303 303 304 304 304 304 304 304 305 304 304 305 305 306 306 306 306 306 305 305 305 305 306 306 306 305 305 305 305 305 304 305 306 305 305 305 305 306 306 306 306 306 306 306 306 307 307 306 306 305 305 305 305 305 305 306
292 291 289 290 288 286 283 283 292 285 285 283 283 282 289 297 297 298 297 296 300 301 299 299 300 303 303 303 303 304 304 304 304 304 303 302 301 301 301 302 303 302 302 302 303 303 303 303 304 303 304 304 303 304 304 304 304 304 304 303 303 303 303 304 304 303 303 303 303 302 302 303 303 304 304 303 303 304 304 304 303 303 304 304 304 304 305 305 304 304 304 304 304 303 303 303 304
Wind_Speed
8 6 3 5 5 5 5 1 5 4 5 1 4 3 6 4 3 6 5 6 5 5 4 1 2 3 5 6 6 7 11 11 7 5 4 4 6 10 9 11 12 12 11 9 10 10 10 8 8 11 10 9 10 10 9 8 7 8 8 8 12 14 13 14 13 13 13 13 14 13 13 13 13 14 14 13 12 14 16 15 14 15 14 15 15 16 16 16 15 15 15 14 14 14 14 14 15
5 2 4 4 3 3 3 2 5 3 3 4 3 2 8 6 4 5 7 4 6 7 4 2 3 1 4 7 5 3 11 9 9 8 8 9 11 8 10 11 12 12 10 9 9 9 10 10 6 10 10 9 9 8 9 8 7 7 9 8 9 12 13 14 13 12 12 12 14 13 11 13 14 13 13 12 12 15 14 14 15 15 15 14 14 15 16 16 15 15 14 15 14 13 13 13 14
3 3 3 4 4 4 1 3 5 2 3 3 6 5 6 6 4 5 7 7 8 8 5 4 2 2 3 4 4 6 6 6 9 11 8 11 11 8 9 12 11 11 11 8 9 10 9 10 6 9 10 9 9 9 8 7 7 8 8 9 8 10 11 12 13 12 12 13 13 12 12 12 12 13 13 12 13 14 14 15 15 15 15 14 15 15 14 13 14 15 15 15 14 14 14 13 13
7 3 4 3 3 1 4 4 6 2 4 5 6 6 5 5 5 9 9 8 7 6 5 4 5 3 5 2 7 0 9 6 7 8 8 9 6 11 9 12 11 10 9 7 8 9 9 10 6 9 9 10 10 9 8 7 8 8 8 8 11 11 10 10 12 12 12 14 14 13 12 12 12 12 12 11 12 12 14 12 13 13 14 14 15 14 14 14 14 13 14 14 14 14 14 14 14
5 2 3 4 5 4 4 3 4 2 1 3 5 7 7 5 9 9 9 7 6 3 6 4 4 4 3 4 4 4 6 9 6 5 7 7 12 11 11 12 10 10 9 9 10 9 11 11 6 8 10 10 10 9 8 8 8 8 7 6 10 10 10 9 12 13 11 14 13 12 11 10 10 12 12 11 10 13 13 13 12 11 14 14 14 14 13 14 15 14 13 14 14 14 14 14 14
4 3 2 4 3 3 3 4 5 5 5 5 4 7 7 6 9 9 9 7 5 3 1 6 3 3 3 2 4 3 4 3 5 7 7 8 11 13 12 11 11 10 9 9 8 9 11 10 5 8 10 10 9 9 8 8 8 7 6 7 7 10 10 9 9 13 12 13 13 11 10 10 11 11 11 10 13 13 12 11 11 13 13 13 13 13 13 12 13 14 13 13 14 13 13 13 13
1 3 3 3 2 2 5 5 3 1 6 4 5 6 7 8 9 11 9 8 3 3 1 4 2 2 4 5 5 5 6 3 4 6 5 11 11 12 12 9 9 10 9 8 8 10 12 8 7 10 9 9 9 8 8 8 7 7 6 6 9 9 10 10 9 11 12 12 12 11 10 10 11 11 9 9 11 11 11 12 13 12 12 12 13 14 13 13 13 13 13 13 13 13 13 12 13
2 3 2 5 4 4 6 3 2 1 5 5 3 4 7 8 9 8 10 7 7 5 6 1 3 6 5 2 0 5 5 5 6 7 12 11 11 12 10 9 10 10 9 9 9 10 10 8 8 9 9 10 8 8 8 8 7 7 7 8 10 11 11 11 11 11 12 12 11 11 10 10 11 10 9 9 11 11 11 13 13 13 13 13 13 12 12 12 12 13 13 14 13 13 12 12 13
2 5 1 4 5 3 4 4 1 4 5 3 4 4 5 7 8 8 8 3 9 2 9 6 3 5 6 5 4 6 6 5 2 10 11 12 12 12 8 10 10 10 9 10 9 11 11 8 8 9 8 9 8 8 8 7 7 6 7 6 8 10 11 11 12 11 11 11 11 10 10 10 10 9 10 12 12 10 10 11 11 12 12 13 12 12 12 12 12 12 12 12 12 12 11 11 11
3 4 5 5 3 6 5 3 4 4 4 4 3 6 5 5 6 6 8 6 6 6 5 4 3 3 1 4 6 6 6 6 6 9 10 11 11 11 10 10 10 11 9 10 10 11 10 9 9 9 9 7 8 8 8 7 7 6 6 6 8 8 11 10 11 11 10 11 10 9 9 9 8 10 13 11 10 8 10 9 10 12 12 12 12 11 11 11 11 12 11 11 11 12 11 11 11
5 4 3 5 5 5 5 4 3 5 4 4 4 4 5 5 6 6 6 6 5 5 7 5 4 6 3 3 5 5 9 8 9 11 11 11 12 11 10 9 10 10 9 8 10 11 11 11 10 10 8 7 7 8 8 7 7 6 5 6 6 6 10 10 10 10 9 9 10 9 9 9 7 8 10 9 9 9 9 9 9 10 10 11 11 11 11 11 10 11 11 11 11 11 11 11 11
3 6 4 6 6 6 5 2 4 5 4 4 6 6 4 7 5 6 6 6 6 5 7 9 1 3 3 3 5 7 10 9 10 10 11 11 10 10 10 9 10 10 10 8 9 10 11 11 10 9 9 8 7 6 7 6 6 6 5 5 5 5 8 10 9 9 8 8 9 9 9 8 7 8 10 8 6 8 10 9 9 10 11 10 11 11 10 10 10 10 10 10 10 10 10 10 10
5 4 7 6 3 4 6 1 5 4 5 5 7 5 6 8 7 6 6 3 7 6 6 8 4 4 3 4 6 9 10 10 10 11 11 10 10 10 9 10 10 10 10 9 9 10 11 10 10 10 9 9 8 7 7 6 6 5 5 5 4 5 7 9 8 7 7 8 9 8 8 7 7 9 10 11 11 12 9 7 5 10 9 9 10 10 10 10 10 9 9 9 9 9 10 10 10
5 4 3 6 2 2 3 1 4 5 5 8 6 8 8 7 7 3 6 5 7 4 6 5 2 2 0 5 6 7 8 12 11 11 8 9 9 9 10 9 10 9 9 9 9 9 9 9 10 10 10 9 8 7 7 7 6 6 5 5 5 5 8 7 6 6 6 8 7 7 7 7 8 10 9 9 9 10 8 7 8 7 10 11 10 10 10 9 8 8 8 9 9 9 9 9 9
3 1 3 2 2 3 2 4 5 6 6 9 6 10 8 1 1 2 6 6 6 8 4 2 3 3 4 5 7 7 12 14 12 11 10 9 9 8 8 8 9 9 9 9 9 9 9 8 9 9 10 9 9 7 7 7 8 6 6 5 5 6 7 7 6 7 9 9 7 7 7 7 9 9 9 8 8 8 8 7 9 8 11 10 10 9 8 8 7 7 8 9 9 8 8 9 9
2 4 3 4 5 6 6 4 0 5 6 8 7 8 8 5 1 5 3 7 5 3 3 4 2 2 5 6 9 11 15 15 13 11 10 9 8 7 6 7 9 9 9 9 9 8 8 8 8 8 8 8 8 7 7 8 7 9 7 6 5 6 6 7 6 7 8 8 8 8 7 6 5 7 8 7 7 7 7 7 9 9 8 9 9 8 7 7 7 7 7 8 8 8 8 9 8
2 4 5 4 5 6 6 5 5 3 9 9 8 9 9 6 4 1 3 2 3 5 5 3 3 1 5 6 7 13 13 13 13 13 11 9 9 8 7 6 7 7 7 9 9 8 8 8 9 7 8 9 8 7 7 8 8 9 7 7 7 6 7 7 8 7 7 7 7 7 7 5 5 5 4 6 6 6 6 8 9 9 8 9 8 7 7 6 6 6 7 7 7 8 7 8 7
3 5 5 7 3 8 6 6 4 4 6 9 10 10 8 8 6 4 2 4 2 4 5 5 3 3 7 7 2 9 11 14 14 14 12 10 8 9 8 9 9 8 8 8 9 9 9 8 8 8 7 9 8 7 6 7 7 8 7 6 6 6 5 6 6 6 7 6 6 7 5 4 4 4 4 5 4 6 6 7 8 8 7 8 7 6 6 6 6 6 6 5 7 7 7 4 4
6 4 4 6 6 4 3 4 6 2 5 10 9 9 7 4 11 6 7 7 7 6 6 6 6 7 9 8 7 10 12 13 15 14 15 14 11 11 10 9 9 10 9 8 8 10 8 8 9 8 8 8 8 7 6 7 9 7 8 7 6 6 7 6 6 6 6 6 6 5 3 3 3 3 4 5 5 9 7 7 8 7 7 7 7 6 4 5 6 5 4 4 3 4 5 2 3
3 4 6 4 6 6 5 3 6 6 3 9 9 8 5 4 5 7 6 6 7 7 6 7 7 9 10 10 11 10 12 13 14 14 15 15 13 12 11 11 11 11 11 10 9 9 9 8 9 9 8 9 8 7 6 7 7 6 6 6 6 6 6 5 6 5 5 5 6 4 3 3 2 4 8 10 7 5 5 6 7 8 7 8 9 7 8 8 8 6 4 1 3 5 3 1 2
3 4 5 2 5 4 5 4 4 3 5 5 7 7 6 5 4 7 5 4 7 6 5 6 9 9 12 13 13 11 13 14 14 14 14 14 13 11 10 10 9 9 9 10 9 9 11 10 10 9 9 9 9 7 7 6 6 6 6 6 6 5 5 6 5 5 4 5 5 4 2 4 3 3 4 4 5 5 5 5 5 4 5 5 6 4 4 4 4 4 3 4 5 2 1 2 0
5 3 6 3 3 3 5 5 4 3 3 2 7 9 6 6 3 7 6 7 2 4 5 4 2 1 13 14 14 12 13 14 15 15 15 15 15 14 11 9 9 9 8 9 10 10 11 10 10 9 10 9 9 8 7 6 6 6 6 6 6 6 5 5 5 5 5 5 5 4 3 4 4 3 4 4 4 5 5 5 5 5 5 5 6 4 3 4 4 3 4 5 2 2 1 0 2
8 2 2 5 4 3 3 3 3 2 2 4 7 4 7 8 5 7 6 9 6 6 7 8 5 5 9 12 14 13 13 14 15 16 15 15 15 14 12 10 10 10 9 9 10 9 10 11 11 10 10 9 10 9 7 6 7 6 6 6 6 6 6 6 6 5 5 5 5 4 4 4 4 4 4 4 4 4 4 4 4 4 4 4 5 3 3 3 3 3 4 4 2 2 2 2 2
6 6 6 5 4 5 3 4 2 1 3 3 3 4 5 7 6 3 7 10 6 7 7 6 5 3 7 12 13 15 15 15 16 16 16 15 15 15 12 11 10 9 9 10 9 9 10 13 12 11 10 10 9 10 9 7 7 7 6 6 5 6 6 6 6 6 5 6 5 5 5 4 5 4 5 5 4 4 5 4 4 4 4 4 4 4 3 3 3 3 3 3 3 3 3 3 3
9 5 7 5 4 4 4 3 3 2 1 2 1 5 2 3 1 2 6 8 6 7 4 4 4 4 6 9 12 12 13 13 13 14 12 11 12 12 11 9 10 10 10 10 9 10 11 11 12 12 11 11 10 10 9 8 8 7 7 7 7 6 7 6 6 6 6 5 6 5 5 5 5 4 5 5 5 5 4 5 4 4 4 4 4 4 4 4 4 4 4 4 4 4 4 4 3
9 5 8 7 6 6 5 5 3 3 1 2 5 5 3 2 2 7 9 4 7 6 3 3 4 4 6 8 10 11 12 14 13 13 14 11 11 13 13 12 10 11 11 10 10 10 10 12 12 12 12 11 10 10 9 8 8 8 8 8 8 6 7 7 7 6 6 6 6 7 7 5 5 5 5 5 5 5 4 5 4 4 5 4 4 4 4 4 4 4 4 4 4 4 4 4 3
11 8 7 8 7 6 2 2 4 2 2 4 4 5 3 2 2 4 4 5 4 4 5 4 6 6 7 7 8 9 11 12 13 12 11 11 11 12 13 12 12 11 10 11 10 9 9 11 12 12 12 9 9 10 9 10 8 8 8 8 8 8 7 7 7 7 6 6 7 6 7 7 5 5 5 5 5 5 5 5 5 5 5 5 5 4 4 4 4 4 4 4 4 4 4 4 4
11 12 10 8 5 4 5 5 5 4 3 3 3 3 2 3 3 6 4 3 4 6 7 6 6 7 7 8 8 8 8 9 9 10 13 14 11 11 12 12 12 10 10 10 9 9 10 12 12 13 12 11 10 11 9 9 9 8 8 8 8 8 8 7 7 7 7 7 7 5 7 7 7 6 5 5 5 5 5 5 5 5 5 5 5 5 4 4 4 4 4 4 4 4 4 4 4
11 12 8 6 6 5 5 6 5 4 2 3 2 3 7 7 9 11 7 4 5 4 5 6 7 7 7 7 7 7 8 8 9 10 12 11 10 10 13 12 11 11 9 10 10 10 11 12 12 12 13 12 13 12 9 9 9 9 9 9 8 6 8 8 8 7 7 8 7 6 7 8 7 7 6 6 6 5 5 5 5 5 5 4 5 5 5 4 4 4 4 3 4 4 5 5 4
9 9 6 7 6 7 8 5 4 4 3 2 2 6 8 15 16 7 6 6 4 4 5 6 5 7 7 7 7 7 7 8 10 11 10 11 11 11 11 11 12 11 9 8 10 11 9 8 8 10 12 13 13 12 10 10 10 9 8 9 8 7 8 8 8 7 7 7 6 6 6 8 8 8 8 7 6 6 5 5 6 5 5 5 5 4 5 5 5 5 5 5 5 6 6 6 5
9 5 3 7 7 8 9 7 8 6 5 5 3 7 8 3 9 7 5 4 6 7 7 7 6 7 7 7 7 7 9 9 11 11 11 12 10 9 11 11 12 12 9 9 12 12 12 9 9 9 11 13 12 12 10 11 10 10 9 9 9 9 8 8 8 7 6 8 7 6 8 8 9 9 8 7 7 5 5 6 6 6 6 6 5 5 6 6 6 7 6 6 5 6 6 6 6
7 8 8 7 9 5 7 5 9 9 4 6 6 9 11 4 7 5 3 5 6 7 7 7 6 6 7 7 8 8 8 9 10 10 11 11 10 9 10 12 12 13 12 10 11 11 12 12 10 10 12 14 14 13 12 12 12 10 9 9 9 9 8 9 8 8 7 5 6 8 9 9 10 11 8 8 6 7 7 7 7 7 7 6 6 6 6 6 6 6 7 6 6 6 6 7 6
7 10 8 10 9 6 6 7 4 1 6 6 10 7 3 5 6 5 4 6 7 6 7 7 7 7 7 6 6 7 7 9 9 11 11 11 10 9 9 11 11 12 11 11 11 12 12 13 11 12 12 13 13 13 12 12 11 11 11 10 10 9 9 9 9 8 8 8 8 8 8 8 10 10 10 9 8 8 8 8 8 8 7 7 7 7 7 7 7 6 6 7 7 6 6 7 6
7 7 7 9 12 9 6 6 4 5 6 8 9 9 13 2 7 6 5 5 5 5 6 7 7 7 6 6 6 7 8 8 10 10 12 12 10 11 10 9 10 11 11 11 11 11 12 12 12 11 10 11 10 11 11 11 11 10 9 10 9 10 10 10 9 9 10 10 10 9 10 10 9 10 11 10 9 10 9 8 8 8 8 7 7 7 7 6 6 6 7 7 7 7 6 6 7
9 8 5 3 8 14 9 7 8 8 7 7 10 13 15 14 6 7 8 7 5 5 5 5 6 6 7 7 7 8 8 9 9 8 10 13 12 11 10 9 10 10 9 12 11 10 10 10 10 11 11 11 10 10 10 10 9 9 9 10 10 11 10 9 9 9 9 10 11 10 9 8 8 10 10 11 10 8 9 10 8 8 8 8 7 6 6 7 7 7 7 7 6 7 6 5 5
11 14 10 7 9 9 8 6 4 7 10 10 12 12 13 13 15 10 7 9 7 6 6 6 6 6 7 7 7 7 8 9 7 6 6 7 9 9 9 9 9 9 9 10 11 11 11 11 10 10 11 11 10 9 9 9 9 9 9 9 10 9 9 8 9 9 8 8 9 10 10 10 10 10 11 11 9 7 7 8 7 5 3 8 8 7 7 7 8 8 8 7 6 6 5 4 3
7 7 7 5 8 6 5 7 5 0 3 10 12 13 13 13 11 9 8 7 7 8 9 9 8 8 8 8 9 9 9 9 3 6 5 5 6 6 7 8 9 10 10 11 12 12 12 11 11 12 10 11 10 9 9 9 9 9 10 10 9 8 9 9 9 9 9 9 9 9 6 8 9 9 8 9 7 6 9 9 4 4 4 6 5 6 7 7 7 6 6 5 5 5 4 4 1
6 6 7 5 8 6 3 4 4 2 3 6 9 10 13 14 12 13 11 11 11 11 12 13 12 11 9 9 10 10 9 3 6 4 6 6 6 6 6 6 8 10 10 12 12 13 12 12 12 11 9 11 11 10 9 9 9 8 7 8 8 8 8 8 9 9 9 8 9 8 8 5 6 6 6 8 7 8 8 7 8 8 8 7 6 7 5 3 2 3 3 2 2 3 4 4 4
4 6 7 5 5 5 3 5 3 4 2 7 2 8 12 12 12 13 13 12 11 11 12 12 12 12 11 9 9 8 6 7 6 7 7 7 8 8 7 6 7 8 9 11 11 11 12 12 11 10 10 10 10 10 9 9 8 8 7 6 6 6 7 9 9 9 7 8 8 9 9 10 10 10 8 8 8 9 9 9 8 8 9 9 7 8 8 8 6 7 6 6 3 4 5 4 6
4 5 6 8 5 6 4 4 6 3 3 2 4 7 10 12 13 15 13 12 12 10 9 8 4 6 8 8 6 6 7 6 7 6 7 8 8 8 7 7 7 7 7 8 10 11 10 10 10 10 10 10 9 10 9 8 8 7 7 6 5 5 2 3 4 7 8 7 9 9 10 9 10 10 11 10 9 10 11 9 7 7 7 8 9 11 9 9 8 7 8 9 8 7 5 7 8
5 4 6 6 6 6 3 4 4 3 3 2 6 8 11 11 12 10 11 4 2 5 4 6 6 6 6 4 4 5 7 6 6 6 6 6 8 8 8 8 8 8 8 8 9 9 7 10 10 10 9 9 9 8 10 8 6 6 5 5 3 5 2 3 2 4 6 6 7 8 10 10 10 10 9 9 10 9 7 6 6 6 5 5 7 8 8 9 9 8 7 7 8 9 7 7 7
6 5 3 0 8 6 7 9 7 3 4 6 4 4 7 7 13 13 5 3 7 7 7 9 10 8 6 7 8 7 6 6 7 7 6 6 6 6 6 7 8 7 8 8 8 8 8 7 8 9 8 7 8 9 9 8 7 7 7 7 7 7 8 8 9 8 7 7 8 8 9 9 9 9 9 9 7 6 7 8 7 6 8 8 8 8 7 5 6 7 8 9 11 12 9 5 5
7 5 6 2 3 7 7 7 4 4 4 4 2 7 4 4 5 7 5 4 6 5 6 8 7 6 6 5 5 5 4 5 5 5 5 5 5 5 7 7 8 8 7 6 7 7 8 7 7 8 7 6 6 7 9 8 8 7 8 8 8 8 8 6 5 6 6 6 6 8 8 9 10 10 10 10 9 8 7 8 9 9 9 6 6 6 7 7 6 7 7 8 9 7 6 9 10
6 3 3 5 5 8 8 8 7 2 5 4 2 4 6 6 5 6 4 4 6 8 8 8 6 6 5 4 4 3 2 3 3 4 5 5 6 7 8 7 6 5 5 4 4 5 7 7 7 8 6 6 6 7 8 8 7 8 8 8 7 8 8 6 5 5 5 5 5 6 6 6 7 8 8 8 8 8 7 8 7 6 8 8 7 7 8 8 7 6 8 8 6 7 8 9 10
0 1 2 6 5 6 8 7 4 1 1 4 6 3 3 6 4 4 4 6 9 10 10 9 7 5 4 4 2 1 2 2 3 3 3 4 5 5 4 4 3 3 2 4 4 5 5 6 7 7 7 7 7 8 8 9 7 7 7 7 7 7 7 6 4 4 3 4 5 5 6 6 6 6 6 7 7 8 6 6 7 7 8 8 8 8 9 9 10 8 7 7 8 10 10 11 10
2 3 4 6 5 5 5 3 4 3 4 7 7 7 5 9 3 5 3 6 8 7 8 8 7 6 3 2 1 1 1 1 2 3 2 2 2 2 2 3 3 3 3 3 4 5 6 6 8 8 8 7 7 9 8 9 8 7 7 7 8 7 5 4 4 3 3 4 5 6 5 5 5 5 4 5 7 7 7 7 7 8 7 7 6 5 5 5 6 7 8 9 10 10 8 8 8
10 7 10 7 5 4 2 1 3 3 6 5 5 2 4 5 3 6 6 5 5 7 6 6 5 4 3 1 1 1 1 1 2 2 2 2 2 3 3 4 4 4 4 5 5 6 6 7 8 9 8 6 7 8 8 8 8 7 6 7 7 7 6 5 4 4 3 4 5 6 6 6 6 6 5 6 6 6 6 6 6 8 7 6 5 6 8 9 8 9 9 10 10 10 9 9 10
7 5 7 7 4 3 3 3 2 5 6 3 3 1 3 7 3 3 3 3 3 1 4 6 6 5 3 2 1 1 1 1 2 2 3 4 5 4 4 5 5 5 5 5 5 6 6 7 8 9 7 7 6 7 7 8 7 7 7 7 7 6 6 4 5 5 5 5 6 5 5 5 5 5 6 6 6 6 6 7 6 7 7 6 6 4 3 4 5 5 6 7 8 9 9 9 9
2 7 9 7 4 4 5 4 6 7 6 3 2 1 2 12 12 1 4 2 3 2 1 5 6 5 4 3 2 2 2 1 2 3 3 4 5 5 5 5 5 5 5 6 6 6 6 7 8 9 8 7 7 8 8 8 7 6 6 6 6 6 6 6 5 5 4 5 4 4 4 4 4 5 5 5 6 7 6 7 5 5 5 6 6 6 5 4 3 4 5 7 8 9 8 9 9
7 10 9 8 7 6 6 6 3 3 3 3 2 0 5 6 7 14 16 12 6 5 5 5 4 4 3 3 2 2 2 2 3 3 3 4 4 4 5 5 5 5 5 5 6 6 5 6 8 9 9 8 8 8 8 8 8 7 7 6 6 5 5 5 5 4 4 3 3 3 3 3 3 4 4 4 4 4 5 5 5 7 6 7 6 7 7 7 6 5 6 6 7 7 6 8 9
11 3 9 7 5 4 6 6 8 4 1 3 5 1 4 3 1 4 5 7 7 6 5 4 3 3 2 2 2 2 4 3 3 4 4 4 5 5 5 5 5 5 5 5 5 5 6 6 7 9 8 7 8 8 7 7 7 7 6 6 5 4 4 4 4 3 2 2 2 2 3 3 3 4 3 4 5 5 6 5 6 6 5 6 7 7 5 6 6 6 6 6 6 5 7 8 8
2 1 3 3 6 2 4 1 1 2 2 3 2 5 4 4 5 4 3 3 1 4 4 2 4 4 4 3 4 4 4 4 4 5 5 5 5 5 5 5 5 5 5 5 6 5 5 6 6 7 7 6 6 6 5 5 5 4 4 4 3 2 2 1 1 1 1 1 1 2 3 3 3 3 4 4 5 5 6 6 6 7 6 7 7 7 7 7 6 6 7 7 7 4 5 7 8
7 3 4 3 5 5 4 2 2 1 1 5 5 4 6 5 11 9 9 5 5 4 4 5 5 6 6 5 5 5 5 5 5 5 5 5 5 5 5 5 5 5 5 5 5 5 6 6 7 7 7 7 6 5 5 5 5 5 4 3 2 2 1 1 1 1 1 1 1 1 1 2 2 3 3 3 4 4 5 5 6 6 7 7 7 7 7 7 7 6 6 7 7 6 6 7 7
4 2 6 2 2 3 1 3 2 2 5 2 4 6 6 3 3 5 6 6 7 6 7 7 8 7 8 6 6 6 6 5 5 5 6 6 6 6 5 5 6 5 5 6 6 5 5 6 6 7 7 7 6 6 6 5 5 5 5 4 4 3 3 2 1 1 1 1 0 1 1 1 0 1 2 2 3 3 4 5 5 6 6 6 7 7 6 6 6 6 7 7 6 6 6 6 6
2 1 1 6 2 4 4 2 3 3 5 4 6 8 8 6 6 4 6 7 9 9 8 9 9 9 9 8 8 7 6 6 6 6 5 5 4 5 5 5 5 6 6 6 5 6 6 6 7 7 8 7 6 5 6 5 5 4 4 5 4 3 3 2 2 2 1 2 2 2 1 1 1 1 1 2 3 3 3 4 4 5 5 6 6 6 6 6 5 6 7 7 6 5 6 7 6
2 1 2 3 2 5 5 5 2 3 6 2 3 5 4 6 8 6 4 8 10 11 10 11 11 11 9 9 9 8 8 7 6 6 5 5 5 5 4 4 5 5 5 5 6 5 7 6 7 7 7 7 7 7 6 7 5 5 5 5 5 4 4 3 3 2 2 2 3 3 3 3 3 2 2 2 2 3 4 4 4 5 5 5 6 6 5 5 6 6 5 7 8 7 7 7 7
5 5 5 2 2 2 3 2 5 4 5 6 6 4 3 4 8 10 12 8 9 12 11 9 10 10 10 10 10 9 8 7 7 6 6 6 6 5 5 5 5 4 4 5 5 6 5 6 6 6 7 7 7 6 6 6 5 6 6 6 5 5 5 4 4 4 3 4 4 4 4 4 3 3 3 3 3 3 4 4 4 5 5 5 6 6 5 5 5 5 7 7 7 8 9 8 7
8 10 10 11 9 4 5 5 2 0 3 4 4 6 1 3 2 4 2 4 4 6 11 9 10 10 10 10 10 10 9 8 8 7 7 6 6 5 5 4 4 5 5 6 5 5 6 6 6 6 6 6 6 6 6 6 6 6 6 6 6 5 5 5 5 5 5 5 5 5 4 4 4 4 3 3 3 3 3 4 4 4 5 5 6 6 6 6 6 6 7 5 6 7 8 9 8
Wind_Direction
274 221 234 240 250 268 270 167 252 158 237 133 110 211 102 99 110 142 124 134 159 76 61 132 70 160 322 359 346 11 36 16 21 328 81 103 159 117 117 121 128 127 124 126 130 135 134 119 108 101 104 104 97 93 92 91 92 94 91 100 102 88 95 100 100 96 90 84 86 85 88 86 82 78 80 83 84 88 87 85 84 84 82 83 81 75 73 75 78 77 74 77 75 77 76 73 69
263 264 240 246 259 268 187 350 279 152 236 142 88 71 114 110 186 167 135 164 52 118 106 102 150 30 327 316 326 221 59 46 26 79 81 123 130 113 125 130 134 131 127 127 137 126 130 126 86 106 110 106 100 95 93 92 85 85 106 107 90 89 86 90 95 97 98 99 92 87 86 96 92 90 88 86 86 90 88 88 86 82 78 77 80 77 77 77 78 79 78 78 78 78 76 75 72
297 248 228 230 235 264 33 225 255 199 204 173 115 106 118 147 169 159 124 83 94 109 109 100 59 195 271 232 210 349 91 59 75 89 109 135 133 128 137 131 132 129 126 131 130 132 136 120 99 112 110 107 101 98 91 94 99 96 94 94 86 79 76 88 95 97 94 89 86 89 90 85 86 89 89 86 80 80 81 84 85 85 82 77 71 68 75 80 80 76 75 78 78 78 77 77 77
281 275 277 235 214 240 237 209 262 220 237 58 130 118 157 158 141 93 78 84 93 134 142 136 198 69 311 348 26 328 92 94 62 113 117 161 129 135 138 135 132 131 127 130 125 125 124 120 96 111 111 109 108 101 98 91 94 99 90 81 86 84 79 79 94 93 92 89 87 86 84 88 91 89 87 84 84 91 92 90 83 80 87 87 82 77 74 74 76 79 80 81 79 78 79 79 79
253 245 254 273 271 202 253 278 290 253 239 152 100 129 151 164 115 107 91 94 109 149 190 155 195 121 341 322 346 347 68 90 93 96 126 106 111 133 142 138 137 136 134 139 127 123 117 108 98 114 114 113 110 107 102 98 92 88 85 94 97 89 82 82 97 97 97 89 86 82 85 89 86 87 86 88 90 84 86 82 83 84 80 75 77 78 77 79 78 80 80 80 80 79 81 81 80
252 248 206 262 275 9 256 228 200 235 44 341 114 127 145 134 126 117 115 109 98 105 16 183 337 128 179 71 15 30 356 149 109 113 124 116 127 136 140 146 142 143 138 129 120 121 125 116 94 120 119 116 114 112 105 104 100 92 78 69 82 88 89 90 96 99 94 90 81 78 83 90 92 92 88 81 86 92 90 95 90 80 76 77 78 82 86 82 82 81 79 79 80 81 79 80 80
265 229 170 182 152 223 262 243 191 214 70 1 42 122 140 128 123 130 128 122 122 116 200 189 170 221 207 113 121 62 66 40 144 116 97 126 132 140 141 151 138 138 138 127 122 119 124 116 129 124 125 120 117 114 114 110 109 104 92 79 90 96 97 92 91 99 95 88 84 83 89 92 93 92 97 94 88 89 89 83 82 79 79 80 81 82 80 81 84 83 82 84 86 83 80 79 77
246 265 131 227 174 217 233 275 307 326 74 39 41 92 132 128 138 154 153 181 155 189 175 119 226 279 66 238 176 94 93 23 71 106 117 134 137 139 152 146 148 138 138 127 123 117 121 120 127 120 124 125 122 119 114 111 113 110 97 90 82 93 88 90 89 89 95 92 90 92 94 96 95 93 94 93 91 87 89 92 87 81 82 82 79 77 81 84 81 81 81 82 80 80 80 78 75
204 257 109 255 227 194 269 230 98 61 101 113 125 50 10 137 156 159 168 104 133 142 165 175 208 237 98 146 71 117 98 95 88 112 130 137 143 145 157 150 151 139 141 128 119 130 133 122 127 125 123 129 128 125 117 116 117 111 100 101 110 100 89 89 90 90 94 92 94 95 97 100 102 106 97 83 79 87 85 87 93 97 89 82 81 80 81 84 85 85 82 80 82 82 78 76 75
191 255 184 227 267 214 232 185 226 107 96 93 102 142 154 146 160 192 154 159 153 157 138 139 193 277 87 138 127 160 126 124 135 125 135 144 147 153 154 155 139 146 143 137 137 138 134 127 125 122 126 128 134 128 124 121 120 113 114 107 85 79 94 93 94 96 98 101 97 95 99 104 106 103 93 92 94 96 86 85 90 86 84 85 84 83 83 85 87 88 88 87 86 83 81 81 83
205 185 336 222 209 236 204 167 164 141 135 136 134 120 148 169 169 189 171 125 135 155 134 158 189 221 218 102 64 81 113 125 154 146 148 153 154 156 155 149 144 153 142 144 135 140 139 143 126 128 126 128 127 132 128 125 121 122 113 108 90 87 101 103 100 98 97 104 104 100 102 105 105 102 89 98 109 96 94 95 88 91 90 87 87 85 83 80 83 88 89 90 91 91 89 90 89
218 202 166 224 225 229 193 152 140 113 120 147 146 144 160 166 185 185 157 157 162 158 165 190 68 154 192 152 117 132 129 135 157 148 154 153 159 160 152 153 156 153 149 149 147 144 150 144 148 136 129 130 125 122 123 119 125 121 115 105 100 80 108 105 105 107 109 110 111 106 103 108 103 77 50 50 76 89 87 83 91 90 90 93 93 91 86 84 87 88 91 96 96 96 97 91 88
256 168 200 231 250 234 45 270 137 110 152 185 147 147 155 170 189 184 173 155 165 181 163 183 68 241 191 145 97 130 145 143 150 148 154 161 159 159 159 155 162 151 155 157 160 150 152 158 153 154 141 131 125 120 118 110 109 107 115 108 90 65 98 109 108 113 118 120 119 113 96 84 83 72 69 75 82 86 81 57 43 106 105 100 98 93 86 83 84 92 92 96 98 97 99 89 86
258 196 207 218 51 290 224 108 117 187 176 121 100 135 166 179 197 219 165 181 181 192 60 86 193 206 72 116 152 154 147 149 143 149 152 173 162 159 168 155 161 154 158 169 164 157 161 163 157 154 149 157 149 133 121 120 113 108 94 87 79 70 57 86 89 86 97 105 96 80 87 75 72 68 70 69 79 82 76 56 21 71 93 89 87 85 84 85 88 94 97 94 95 92 83 81 79
257 190 236 282 195 224 158 232 180 210 120 132 126 149 165 115 323 226 190 211 121 72 111 27 23 227 84 246 152 165 143 146 146 151 158 167 163 160 168 156 157 158 165 177 170 167 165 165 163 155 162 168 158 161 155 134 121 109 106 95 85 76 77 73 86 105 115 116 104 90 84 77 70 73 71 70 71 79 80 65 40 40 98 98 90 87 88 92 93 92 97 93 90 89 82 75 74
287 200 227 213 214 219 150 228 186 243 122 131 143 149 164 140 220 209 78 1 83 77 204 152 220 356 14 55 41 118 134 138 148 151 157 159 164 160 173 173 168 163 173 179 171 181 169 172 167 162 167 169 166 165 156 153 133 124 117 106 91 87 91 88 92 104 113 114 108 110 107 113 114 95 95 84 67 68 63 66 49 34 100 102 98 94 96 101 102 99 99 104 93 91 85 78 74
266 274 189 218 218 207 141 210 170 217 107 110 141 163 175 165 163 358 350 294 233 151 193 108 138 155 46 70 79 111 123 130 144 154 158 161 169 169 174 178 173 170 177 182 178 182 180 174 177 169 173 171 168 167 158 156 134 131 119 105 101 100 104 104 104 110 112 118 129 129 154 167 147 130 161 117 130 85 84 71 59 53 80 94 94 97 102 107 108 110 109 105 105 95 88 75 61
223 205 216 204 222 196 145 206 170 79 145 136 162 178 190 157 168 156 184 186 238 138 198 133 123 118 85 109 77 123 132 148 153 159 165 166 178 171 181 181 177 177 180 183 189 183 185 183 183 181 171 174 172 168 163 156 151 173 162 156 165 138 131 137 154 154 159 151 140 162 186 157 153 163 125 124 128 131 100 74 67 66 71 87 94 109 113 109 111 109 115 117 125 130 151 138 113
202 195 217 222 202 63 15 64 63 353 104 151 162 182 210 169 163 160 206 179 188 187 196 179 178 149 118 117 134 145 150 158 162 169 170 175 181 181 182 183 185 181 181 184 190 187 187 186 189 184 177 179 176 173 167 157 165 178 175 167 163 180 164 187 189 171 183 169 177 195 201 154 154 144 96 70 84 63 80 74 77 70 71 81 79 78 101 114 102 99 97 121 134 218 235 177 131
233 226 191 237 64 74 66 45 86 54 20 148 160 170 205 110 175 140 226 171 186 210 177 182 203 176 163 138 152 152 164 166 172 176 178 183 188 186 187 186 189 188 185 187 186 190 187 186 190 191 186 186 181 180 176 173 174 184 177 174 172 181 174 196 201 188 194 179 191 208 204 130 160 116 95 108 116 143 106 92 96 98 97 104 119 104 85 84 100 93 91 128 205 226 206 184 138
130 227 216 152 121 149 86 66 66 44 349 151 153 147 188 161 160 182 199 201 205 220 212 186 195 199 171 152 156 162 173 174 179 187 187 188 192 192 194 192 189 188 184 185 184 190 190 191 187 192 190 190 192 183 187 185 183 185 186 185 184 185 187 189 198 192 201 190 199 218 178 130 192 141 154 156 188 173 165 172 168 184 172 168 196 156 165 152 215 156 153 212 218 202 229 227 231
158 202 52 64 122 131 77 81 59 36 342 231 140 162 185 129 170 203 212 222 174 193 181 189 73 227 164 153 156 163 174 178 184 191 194 192 194 194 195 193 188 192 183 189 189 188 193 193 188 191 191 192 191 194 194 180 183 193 192 192 189 194 186 196 203 195 197 199 199 221 163 167 200 167 169 176 195 168 170 181 187 193 174 177 203 187 200 177 207 167 181 207 218 205 231 202 280
193 140 88 53 33 48 77 101 59 304 176 184 170 152 112 177 179 199 230 240 68 50 57 50 47 36 129 146 151 166 177 183 187 193 195 197 198 200 198 193 187 190 185 195 190 192 190 197 193 191 192 191 191 196 197 188 196 197 193 195 197 199 188 200 206 205 204 186 207 204 201 187 197 188 177 188 198 177 187 184 188 187 171 194 197 215 185 191 206 197 204 211 214 199 212 227 240
263 169 144 86 49 74 67 75 96 133 263 156 76 81 199 182 195 118 232 240 90 86 72 68 66 118 134 149 165 171 182 188 193 196 197 198 198 200 201 197 189 190 187 189 189 190 187 198 195 193 194 195 194 199 201 197 200 201 196 191 211 204 198 198 209 210 204 198 199 208 210 203 197 197 185 189 197 195 191 190 187 183 190 193 198 219 191 207 207 210 208 204 209 213 216 226 227
218 137 152 114 96 93 92 96 123 161 324 358 180 183 172 208 348 110 231 238 171 122 99 104 98 127 179 170 175 180 185 192 196 196 199 205 204 204 207 210 200 190 191 188 189 194 190 196 197 196 197 198 197 196 203 203 202 203 196 198 205 207 208 204 208 208 217 206 200 216 212 217 204 202 192 195 194 202 189 192 193 193 194 197 192 209 200 207 213 213 207 210 213 218 212 213 229
224 146 127 133 115 109 111 117 124 158 137 195 180 189 114 71 26 261 241 159 98 113 158 167 151 154 177 192 185 184 188 192 194 193 197 198 201 202 206 210 210 206 201 194 193 193 191 193 199 199 200 200 200 199 202 203 204 206 204 204 206 196 212 216 205 209 215 212 214 206 214 228 217 209 194 200 199 197 198 188 202 203 196 200 197 209 201 209 213 211 215 217 217 221 225 222 218
140 125 127 130 121 122 140 149 123 142 144 178 224 178 146 101 240 235 167 107 121 153 185 172 207 212 194 194 193 196 194 193 193 193 194 198 201 204 205 208 211 212 202 199 196 194 187 189 199 201 201 198 203 205 204 206 203 208 206 207 205 200 206 218 216 213 213 217 221 196 209 217 238 220 208 202 201 200 201 195 207 202 204 203 200 210 202 214 217 218 213 219 221 224 228 225 219
134 125 108 102 122 113 126 127 132 170 137 209 291 158 100 134 197 255 129 111 152 196 200 195 204 220 207 199 194 195 201 197 192 192 197 196 200 200 203 203 205 209 207 201 197 195 193 192 199 203 202 197 202 208 206 210 210 209 209 212 211 206 204 209 217 217 214 216 222 214 212 212 218 230 220 207 212 204 205 206 204 206 208 206 202 207 202 207 221 226 224 232 244 238 238 231 221
141 148 150 133 141 154 177 159 147 233 117 200 309 256 223 182 225 224 134 145 145 154 183 195 209 213 207 195 195 191 199 192 189 196 201 202 201 200 203 200 198 201 209 203 197 194 196 193 198 199 205 200 203 208 206 212 215 212 207 214 218 210 209 210 213 216 222 218 217 210 217 219 216 222 220 219 215 216 214 209 208 207 214 209 206 205 198 205 215 218 209 214 233 241 246 241 229
156 184 179 150 177 210 163 120 142 215 104 177 211 247 241 209 217 135 138 150 157 175 196 188 197 199 202 193 196 201 194 193 196 201 201 203 203 203 205 199 198 198 198 199 198 196 195 192 191 198 202 208 204 211 213 211 214 218 213 214 214 212 213 213 214 210 218 228 217 202 218 221 221 221 223 223 222 221 219 214 211 211 212 209 205 196 198 204 214 213 215 208 221 229 235 235 233
173 147 218 199 180 210 149 173 147 199 127 172 212 259 271 125 158 119 122 184 184 212 216 206 195 193 195 198 199 203 201 203 205 204 204 203 202 201 201 198 194 195 193 194 197 196 195 195 189 201 190 207 196 204 208 219 216 216 217 218 213 211 214 212 211 211 205 216 221 216 219 226 226 231 232 228 225 228 226 221 218 215 208 197 199 200 208 213 213 214 210 215 217 219 231 236 236
166 158 203 213 215 136 140 139 169 203 151 197 202 257 257 215 135 110 146 187 208 214 218 207 200 198 198 198 204 207 208 204 213 214 208 206 203 200 196 198 193 193 193 192 192 194 197 194 193 201 194 206 207 209 212 216 218 217 217 218 220 213 217 221 220 212 210 206 212 213 210 217 225 225 214 218 223 219 224 229 225 220 210 198 203 202 206 217 215 216 213 211 218 223 227 234 232
190 202 182 198 202 166 157 179 167 338 144 178 215 250 259 159 123 145 153 179 196 215 221 219 212 206 204 207 207 211 209 205 206 212 211 206 204 202 195 196 194 192 193 191 188 191 196 194 191 200 199 200 209 202 205 216 221 220 220 218 221 220 218 218 221 217 209 203 210 211 212 217 220 220 216 212 221 222 222 224 225 219 213 209 206 205 204 212 214 212 215 211 219 228 223 232 234
194 208 220 192 195 200 214 101 215 165 201 192 214 242 249 273 134 148 169 181 175 207 221 229 226 222 214 212 212 212 214 211 209 205 206 203 201 201 199 195 196 192 195 197 195 192 196 193 193 198 202 200 202 209 209 209 216 221 226 226 218 222 225 227 227 223 222 220 217 215 213 212 216 225 227 224 228 234 233 228 226 222 217 213 211 206 212 212 219 215 220 216 216 223 231 230 231
175 177 206 159 211 211 209 182 157 179 202 231 205 230 248 256 211 161 172 178 191 202 216 221 221 217 219 219 225 225 224 219 221 210 201 199 198 197 198 193 195 195 195 198 198 196 196 199 197 194 200 201 200 203 208 211 218 222 223 220 220 221 227 227 227 226 227 229 225 224 219 223 218 225 225 224 225 227 234 235 233 232 229 227 214 209 213 215 218 220 224 223 216 223 233 235 237
187 183 192 187 186 194 211 88 117 201 189 215 224 232 242 242 251 239 183 180 197 218 223 233 234 234 236 233 233 233 230 231 226 212 183 176 186 188 190 189 191 194 195 196 199 199 200 202 202 197 199 200 199 201 200 208 208 212 215 223 228 216 219 220 220 226 226 228 230 224 209 212 218 220 228 228 225 221 230 233 235 241 207 228 226 213 216 218 220 223 226 227 225 217 226 235 219
191 191 208 194 187 194 101 87 79 321 237 222 228 241 254 259 257 254 246 181 215 231 236 234 233 233 232 232 235 236 234 240 142 133 142 165 171 176 180 182 189 190 198 196 197 200 200 200 197 202 196 197 198 198 200 200 204 210 216 217 219 222 225 223 223 229 233 233 232 230 229 220 215 215 217 225 226 220 228 233 212 214 197 220 223 226 226 225 220 221 222 210 221 212 215 212 110
163 166 193 200 197 200 85 116 112 106 228 232 221 247 255 259 258 259 252 240 233 232 235 235 235 234 230 227 231 232 238 183 133 180 174 169 180 172 167 179 184 188 196 198 199 199 200 200 202 203 197 197 201 201 198 202 203 206 208 214 221 222 218 219 227 231 229 235 237 227 224 216 215 220 214 224 226 215 217 224 227 228 224 223 221 223 218 212 198 165 137 182 200 219 237 189 178
161 200 193 208 189 88 130 88 106 129 169 252 153 253 260 258 258 256 250 245 242 235 240 238 235 233 233 224 222 226 204 206 200 207 190 180 169 170 174 180 191 203 197 199 201 198 199 201 205 202 201 199 200 202 201 202 202 205 208 211 212 224 220 220 222 230 234 222 216 219 221 219 218 217 203 205 213 218 224 222 223 226 229 230 227 221 213 213 197 194 179 207 183 204 237 227 190
193 184 188 208 149 177 199 153 146 158 225 330 20 296 274 269 258 254 249 241 240 238 236 237 234 235 226 225 230 218 216 217 208 201 192 184 172 176 178 178 183 186 195 195 196 199 198 200 201 200 200 201 201 201 204 204 201 201 208 225 226 238 310 320 217 219 232 238 238 225 222 227 218 214 212 204 207 220 227 232 231 222 224 219 229 232 214 210 205 200 206 208 205 224 204 224 199
209 234 201 192 147 178 356 133 138 118 246 334 296 282 269 250 248 239 229 213 191 200 217 240 243 235 246 278 293 255 247 241 241 228 215 185 175 183 184 185 175 180 191 195 191 193 194 197 195 194 194 198 201 198 196 200 195 199 206 212 242 250 263 255 292 246 243 248 246 237 242 243 245 248 241 229 226 223 218 216 216 223 230 220 213 226 222 217 212 206 195 201 204 213 218 214 200
191 229 274 82 170 139 104 117 139 186 223 189 216 271 264 230 221 230 164 181 225 218 214 224 227 217 195 224 235 231 228 240 246 236 224 215 203 183 176 167 177 190 193 194 191 190 190 188 188 187 191 193 194 195 190 190 195 196 195 202 208 220 230 223 225 231 232 235 246 257 261 258 255 251 252 247 229 221 226 224 218 215 224 218 210 222 223 217 208 203 202 205 215 218 226 208 223
214 187 175 95 131 130 138 151 185 211 245 130 219 228 267 125 203 209 190 195 223 172 213 225 202 197 195 214 214 207 212 215 218 233 235 227 217 218 215 205 201 200 199 178 181 190 190 184 182 180 182 182 182 185 184 184 194 200 204 205 212 220 227 231 231 229 236 240 237 235 234 241 239 242 244 239 231 217 224 226 226 222 226 215 210 221 229 230 231 222 207 205 210 203 209 241 241
219 25 172 130 158 150 165 173 206 307 77 87 225 250 263 276 257 131 134 207 238 226 208 207 195 197 199 197 201 210 229 238 246 243 229 222 223 214 216 204 196 198 162 144 167 179 183 177 171 170 171 172 167 175 181 184 188 193 198 207 210 221 224 235 225 221 228 247 253 248 247 253 257 253 252 254 253 242 212 232 239 227 227 230 214 212 216 218 223 217 203 199 205 209 208 220 235
8 23 260 149 182 180 168 196 201 8 301 233 181 198 256 250 218 126 162 247 242 231 208 188 184 179 176 205 205 208 241 250 247 233 214 192 201 204 199 163 149 126 134 172 177 167 165 166 160 162 164 165 160 169 175 181 189 189 192 196 207 218 226 232 240 244 246 247 258 265 267 264 261 266 277 283 282 274 252 226 226 229 229 232 222 221 220 219 217 209 199 201 206 215 212 213 224
136 163 80 86 83 107 174 193 200 203 213 244 182 187 242 265 225 189 193 241 242 237 180 179 170 161 169 202 221 241 194 201 211 233 213 183 165 152 103 105 131 121 117 132 132 140 148 151 158 161 158 163 156 165 175 176 184 189 187 194 203 205 212 227 243 256 277 263 263 262 265 266 268 269 270 266 268 275 284 282 268 255 244 237 244 241 242 238 232 231 229 221 221 220 219 222 225
134 160 111 108 116 130 129 161 212 211 238 232 95 216 273 284 222 220 187 221 232 226 150 150 145 144 151 142 180 202 213 175 191 177 157 125 96 114 148 137 117 119 131 141 142 145 144 149 151 153 151 147 151 159 168 170 178 189 190 193 200 207 205 216 225 237 261 266 257 260 261 264 268 269 272 273 279 276 273 278 281 280 282 282 259 235 229 231 228 227 226 224 219 218 222 224 231
158 146 142 125 107 146 177 187 206 234 243 91 325 179 259 227 237 217 34 17 10 316 194 172 170 156 144 130 131 100 124 129 146 143 125 122 125 124 132 121 120 122 130 128 128 134 141 143 146 136 126 128 142 150 162 169 176 185 191 189 197 206 212 214 224 235 235 240 246 255 258 263 264 272 278 279 271 270 271 269 269 271 267 267 269 274 271 256 246 233 232 231 232 225 223 222 229
239 161 167 176 169 169 202 188 208 218 243 106 98 231 230 236 245 247 196 159 198 216 263 161 153 141 125 120 94 104 87 117 124 118 123 126 121 124 118 115 118 117 113 121 123 124 127 133 134 130 132 138 144 153 162 165 173 182 185 190 195 201 208 213 223 233 239 244 246 244 248 252 254 253 251 261 271 274 275 273 274 276 276 266 268 267 265 246 235 231 228 231 232 233 228 225 229
196 190 180 193 187 185 213 200 222 233 71 259 113 151 264 297 270 241 256 243 178 165 99 84 98 102 110 105 103 90 104 87 93 94 94 96 101 100 106 108 105 104 104 105 109 112 118 130 137 130 134 143 145 152 158 162 170 176 184 187 192 193 198 209 216 228 233 246 255 267 269 275 275 273 280 268 256 265 270 279 288 284 285 291 297 294 284 284 276 259 244 243 240 238 233 232 236
197 206 200 202 207 182 198 197 195 206 188 103 253 219 237 190 139 35 47 34 103 103 88 79 101 108 106 92 105 120 121 106 99 95 89 89 88 93 91 90 87 89 94 94 97 102 110 110 117 122 127 136 147 153 157 160 163 167 169 180 187 186 192 193 205 209 222 238 265 276 279 284 284 294 297 309 322 305 293 280 272 278 287 289 288 285 281 272 268 268 264 256 254 243 232 229 234
173 315 16 261 227 299 239 29 334 129 153 152 175 228 278 246 105 162 131 129 88 119 123 146 169 147 142 153 150 142 128 118 108 105 96 80 80 80 83 78 78 80 83 83 83 84 89 92 100 107 113 115 116 122 126 133 130 129 135 159 170 182 182 203 211 188 212 250 273 283 286 279 287 303 310 320 318 313 299 293 292 281 274 275 277 282 285 283 283 279 276 272 267 243 241 238 243
179 161 210 184 18 101 108 121 100 355 322 253 148 244 253 265 280 237 182 179 201 164 174 175 175 150 154 159 152 139 133 123 117 109 99 95 77 66 64 68 74 73 68 66 65 68 86 97 102 101 100 99 100 103 108 108 118 129 130 123 102 105 86 31 0 37 358 331 274 274 267 309 316 299 308 329 313 310 307 307 299 297 293 284 277 274 279 281 282 279 275 274 276 286 281 272 268
93 211 187 116 213 3 168 234 131 230 238 244 152 217 247 210 263 109 140 194 186 182 186 182 171 158 164 157 150 147 139 122 105 95 88 85 80 74 67 61 59 66 70 71 66 58 58 65 83 96 100 99 97 99 98 100 103 95 92 83 74 59 57 49 21 7 342 301 266 218 207 229 312 344 313 299 301 291 293 290 285 288 292 293 291 291 282 278 283 282 280 280 284 287 279 271 262
309 185 7 184 184 217 180 247 221 212 224 243 211 214 247 228 215 141 183 189 192 198 177 175 168 173 167 153 150 140 126 121 124 120 114 101 89 80 82 77 69 65 65 66 66 67 69 67 65 75 79 78 84 82 88 78 73 75 70 72 74 77 68 54 46 18 359 349 351 349 352 341 296 328 329 337 325 321 311 305 301 296 294 294 294 289 287 283 281 279 279 279 275 268 266 266 265
45 298 214 27 347 235 186 198 275 239 244 231 235 157 243 189 226 228 202 185 198 182 171 186 176 175 165 157 151 148 149 149 144 136 119 108 98 90 82 84 82 73 73 69 70 70 70 70 73 75 78 79 77 75 78 80 74 82 87 88 76 76 69 65 49 38 42 36 21 3 356 350 3 353 14 353 334 329 319 315 314 308 304 302 298 295 293 291 289 285 290 286 284 283 276 269 269
173 190 180 200 215 14 340 241 217 220 237 234 253 238 230 205 189 214 231 242 212 178 174 175 173 173 162 153 152 156 159 155 148 139 129 122 117 106 94 88 83 80 77 76 75 77 78 77 80 81 86 83 79 76 78 79 86 83 85 80 78 69 65 60 63 50 54 44 38 24 16 354 339 15 15 8 356 348 337 332 325 318 316 313 310 305 304 302 293 285 284 284 291 292 286 281 277
196 186 191 189 174 173 186 225 105 112 215 242 232 246 270 92 29 210 197 69 43 160 166 163 167 165 154 153 160 161 159 155 147 141 133 127 119 113 112 106 108 106 98 96 90 90 83 78 80 82 81 79 83 78 82 85 80 78 75 73 69 68 62 59 58 50 44 41 33 30 9 352 1 11 13 7 12 2 349 338 328 319 314 312 308 309 309 305 297 294 289 284 281 279 279 277 278